Location: Zilina
(0.0000°N, 18.7333°E)
Time: 22:27:24
(UTC+02:00)

Cosmos 990 Rocket - Pass Details

Date: 19 February 2019
Orbit: 747 x 768 km, 74.0° (Epoch: 16 October)

Event Time Altitude Azimuth Distance (km) Brightness Sun altitude
Rises 18:07:05 0° 353° (N) 3,175 7.2 -2.0°
Reaches altitude 10° 18:09:26 10° 356° (N) 2,253 6.4 -2.6°
Maximum altitude 18:14:30 66° 78° (ENE) 812 4.0 -3.8°
Drops below altitude 10° 18:19:35 10° 160° (SSE) 2,265 6.4 -5.1°
Sets 18:21:58 0° 162° (SSE) 3,193 7.1 -5.7°
